User: anonymous   Login
Location: Unspecified
(0.0000°N, 0.0000°E)
Time: 00:40:00
(UTC+00:00)
Language:

Tsikada - Orbit

View from above orbital plane
View from above orbital plane
View from above satellite
View from above satellite

Ground track
Ground track

The orbit data is extracted from the following two-line orbital elements,

1 23463U 95002A   17206.63073045 +.00000045 +00000-0 +32165-4 0  9998
2 23463 082.9263 257.6654 0039496 159.3252 315.3082 13.72473294126826
Epoch (UTC): 25 July 2017 15:08:15
Eccentricity: 0.0039496
inclination: 82.9263°
perigee height: 961 km
apogee height: 1020 km
right ascension of ascending node: 257.6654°
argument of perigee: 159.3252°
revolutions per day: 13.72473294
mean anomaly at epoch: 315.3082°
orbit number at epoch: 12682

The dashed part of the orbit path shows where the satellite is in the earth's shadow,  

DLR